,,Stat6,,Stat2,,Stat8,,Stat9,,Stat10,,Wind1,,Wind1,
time,status,PA1M_AVG,status,PR1M_SUM,status,RH1M_AVG,status,SR1M_AVG,status,TA1M_AVG,status,W1dAve1m,status,W1sAve1m,
2003-12-06, 00:00:00,VALID,917.081,VALID,0,VALID,95.5293,VALID,-0.0509425,VALID,20.5383,VALID,126,VALID,1.30069,
2003-12-06, 00:01:00,VALID,917.067,VALID,0,VALID,95.5751,VALID,-0.0679233,VALID,20.5283,VALID,118,VALID,1.17697,
2003-12-06, 00:02:00,VALID,917.063,VALID,0,VALID,95.5509,VALID,-0.0849042,VALID,20.5224,VALID,119,VALID,0.925195,
2003-12-06, 00:03:00,VALID,917.067,VALID,0,VALID,95.5026,VALID,-0.101885,VALID,20.503,VALID,81,VALID,0.903963,
2003-12-06, 00:04:00,VALID,917.075,VALID,0,VALID,95.6259,VALID,-0.0679233,VALID,20.4836,VALID,84,VALID,0.717842,
2003-12-06, 00:05:00,VALID,917.069,VALID,0,VALID,95.6844,VALID,-0.0849042,VALID,20.4613,VALID,107,VALID,0.782774,
2003-12-06, 00:06:00,VALID,917.06,VALID,0,VALID,95.7086,VALID,-0.0849042,VALID,20.4575,VALID,116,VALID,1.1293,
2003-12-06, 00:07:00,VALID,917.063,VALID,0,VALID,95.598,VALID,-0.0339617,VALID,20.4546,VALID,110,VALID,1.18351,
2003-12-06, 00:08:00,VALID,917.048,VALID,0,VALID,95.6259,VALID,-0.101885,VALID,20.4642,VALID,102,VALID,1.31895,
2003-12-06, 00:09:00,VALID,917.039,VALID,0,VALID,95.3932,VALID,-0.0509425,VALID,20.503,VALID,109,VALID,1.20465,
2003-12-06, 00:10:00,VALID,917.04,VALID,0,VALID,95.1364,VALID,-0.0339617,VALID,20.5154,VALID,107,VALID,1.37409,
2003-12-06, 00:11:00,VALID,917.034,VALID,0,VALID,95.0461,VALID,-0.0509425,VALID,20.5415,VALID,122,VALID,1.36754,
2003-12-06, 00:12:00,VALID,917.023,VALID,0,VALID,95.116,VALID,-0.0339617,VALID,20.5348,VALID,152,VALID,1.00874,
2003-12-06, 00:13:00,VALID,917.019,VALID,0,VALID,95.191,VALID,-0.0509425,VALID,20.5281,VALID,84,VALID,0.240091,
2003-12-06, 00:14:00,VALID,917.012,VALID,0,VALID,95.1987,VALID,-0.0339617,VALID,20.5159,VALID,100,VALID,0.437318,
2003-12-06, 00:15:00,VALID,916.998,VALID,0,VALID,95.3475,VALID,-0.0509425,VALID,20.503,VALID,146,VALID,0.679332,
2003-12-06, 00:16:00,VALID,917.003,VALID,0,VALID,95.3386,VALID,-0.0679233,VALID,20.4804,VALID,172,VALID,0.24721,
2003-12-06, 00:17:00,VALID,917.011,VALID,0,VALID,95.4848,VALID,-0.0849042,VALID,20.4538,VALID,144,VALID,0.634629,
2003-12-06, 00:18:00,VALID,917.012,VALID,0,VALID,95.5013,VALID,-0.0849042,VALID,20.4513,VALID,176,VALID,0.460737,
2003-12-06, 00:19:00,VALID,916.997,VALID,0,VALID,95.5395,VALID,-0.0679233,VALID,20.4419,VALID,191,VALID,0.25,
2003-12-06, 00:20:00,VALID,916.986,VALID,0,VALID,95.5891,VALID,-0.0509425,VALID,20.4287,VALID,176,VALID,0.302326,
2003-12-06, 00:21:00,VALID,916.966,VALID,0,VALID,95.6323,VALID,-0.101885,VALID,20.4225,VALID,163,VALID,0.179324,
2003-12-06, 00:22:00,VALID,916.946,VALID,0,VALID,95.6679,VALID,-0.0849042,VALID,20.3872,VALID,164,VALID,0.112464,
2003-12-06, 00:23:00,VALID,916.931,VALID,0,VALID,95.809,VALID,-0.0509425,VALID,20.348,VALID,164,VALID,0,
2003-12-06, 00:24:00,VALID,916.907,VALID,0,VALID,95.9082,VALID,-0.0849042,VALID,20.3162,VALID,164,VALID,0.0273438,
2003-12-06, 00:25:00,VALID,916.895,VALID,0,VALID,96.2935,VALID,-0.101885,VALID,20.2804,VALID,164,VALID,0.235102,
2003-12-06, 00:26:00,VALID,916.902,VALID,0,VALID,96.6178,VALID,-0.0679233,VALID,20.2247,VALID,164,VALID,0.259487,
2003-12-06, 00:27:00,VALID,916.91,VALID,0,VALID,96.923,VALID,-0.0849042,VALID,20.1671,VALID,164,VALID,0.0851935,
2003-12-06, 00:28:00,VALID,916.911,VALID,0,VALID,97.1328,VALID,-0.0849042,VALID,20.1353,VALID,164,VALID,0,
2003-12-06, 00:29:00,VALID,916.893,VALID,0,VALID,97.3401,VALID,-0.0849042,VALID,20.0901,VALID,164,VALID,0.00130208,
2003-12-06, 00:30:00,VALID,916.884,VALID,0,VALID,97.6363,VALID,-0.0679233,VALID,20.0607,VALID,164,VALID,0,
2003-12-06, 00:31:00,VALID,916.888,VALID,0,VALID,97.7788,VALID,-0.0169808,VALID,20.0379,VALID,162,VALID,0.0356326,
2003-12-06, 00:32:00,VALID,916.883,VALID,0,VALID,97.8093,VALID,-0.0679233,VALID,20.0026,VALID,159,VALID,0.0766369,
2003-12-06, 00:33:00,VALID,916.866,VALID,0,VALID,97.8716,VALID,-0.0679233,VALID,19.9544,VALID,147,VALID,0.492733,
2003-12-06, 00:34:00,VALID,916.837,VALID,0,VALID,97.9492,VALID,-0.0849042,VALID,19.9218,VALID,115,VALID,1.25195,
2003-12-06, 00:35:00,VALID,916.852,VALID,0,VALID,97.9492,VALID,-0.0849042,VALID,19.9479,VALID,112,VALID,0.980741,
2003-12-06, 00:36:00,VALID,916.848,VALID,0,VALID,97.5715,VALID,-0.0509425,VALID,19.9698,VALID,98,VALID,0.517535,
2003-12-06, 00:37:00,VALID,916.838,VALID,0,VALID,97.4761,VALID,0,VALID,19.9954,VALID,96,VALID,0.602734,
2003-12-06, 00:38:00,VALID,916.831,VALID,0,VALID,97.5308,VALID,-0.0169808,VALID,20.0145,VALID,91,VALID,0.421875,
2003-12-06, 00:39:00,VALID,916.821,VALID,0,VALID,97.3197,VALID,0,VALID,20.0403,VALID,88,VALID,0.270419,
2003-12-06, 00:40:00,VALID,916.823,VALID,0,VALID,97.4036,VALID,0,VALID,20.06,VALID,115,VALID,0.200335,
2003-12-06, 00:41:00,VALID,916.813,VALID,0,VALID,97.2867,VALID,0,VALID,20.0853,VALID,115,VALID,0.00334821,
2003-12-06, 00:42:00,VALID,916.799,VALID,0,VALID,97.1811,VALID,0,VALID,20.0888,VALID,121,VALID,0.165777,
2003-12-06, 00:43:00,VALID,916.795,VALID,0,VALID,97.2549,VALID,0,VALID,20.1117,VALID,151,VALID,0.41875,
2003-12-06, 00:44:00,VALID,916.793,VALID,0,VALID,97.1926,VALID,-0.0339617,VALID,20.1144,VALID,155,VALID,0.0507813,
2003-12-06, 00:45:00,VALID,916.799,VALID,0,VALID,97.1035,VALID,0,VALID,20.0987,VALID,155,VALID,0.0571646,
2003-12-06, 00:46:00,VALID,916.787,VALID,0,VALID,97.1239,VALID,-0.0169808,VALID,20.053,VALID,155,VALID,0.12429,
2003-12-06, 00:47:00,VALID,916.789,VALID,0,VALID,97.4774,VALID,-0.0339617,VALID,20.0312,VALID,258,VALID,0.476004,
2003-12-06, 00:48:00,VALID,916.784,VALID,0,VALID,97.7546,VALID,-0.0169808,VALID,19.9827,VALID,266,VALID,0.348474,
2003-12-06, 00:49:00,VALID,916.783,VALID,0,VALID,98.0216,VALID,-0.0339617,VALID,19.9439,VALID,260,VALID,0.41059,
2003-12-06, 00:50:00,VALID,916.791,VALID,0,VALID,98.2823,VALID,-0.0509425,VALID,19.9017,VALID,260,VALID,0.431686,
2003-12-06, 00:51:00,VALID,916.779,VALID,0,VALID,98.5494,VALID,0,VALID,19.863,VALID,265,VALID,0.258185,
2003-12-06, 00:52:00,VALID,916.787,VALID,0,VALID,98.7554,VALID,-0.0339617,VALID,19.8371,VALID,278,VALID,0.28452,
2003-12-06, 00:53:00,VALID,916.776,VALID,0,VALID,98.955,VALID,0,VALID,19.8247,VALID,278,VALID,0,
2003-12-06, 00:54:00,VALID,916.786,VALID,0,VALID,99.1012,VALID,0,VALID,19.8008,VALID,278,VALID,0,
2003-12-06, 00:55:00,VALID,916.781,VALID,0,VALID,99.1661,VALID,-0.0169808,VALID,19.7852,VALID,278,VALID,0.113377,
2003-12-06, 00:56:00,VALID,916.766,VALID,0,VALID,99.2411,VALID,-0.0169808,VALID,19.7589,VALID,278,VALID,0.0330078,
2003-12-06, 00:57:00,VALID,916.751,VALID,0,VALID,99.2386,VALID,-0.0339617,VALID,19.734,VALID,278,VALID,0,
2003-12-06, 00:58:00,VALID,916.742,VALID,0,VALID,99.1686,VALID,0,VALID,19.6789,VALID,278,VALID,0.121271,
2003-12-06, 00:59:00,VALID,916.738,VALID,0,VALID,99.264,VALID,-0.0169808,VALID,19.6563,VALID,278,VALID,0.0714558,
2003-12-06, 01:00:00,VALID,916.729,VALID,0,VALID,99.2932,VALID,-0.0339617,VALID,19.6334,VALID,278,VALID,0,
2003-12-06, 01:01:00,VALID,916.729,VALID,0,VALID,99.2538,VALID,-0.0509425,VALID,19.6115,VALID,278,VALID,0.0250355,
2003-12-06, 01:02:00,VALID,916.717,VALID,0,VALID,99.3416,VALID,-0.0339617,VALID,19.5723,VALID,278,VALID,0.276442,
2003-12-06, 01:03:00,VALID,916.695,VALID,0,VALID,99.3466,VALID,-0.0339617,VALID,19.544,VALID,301,VALID,0.463368,
2003-12-06, 01:04:00,VALID,916.679,VALID,0,VALID,99.4395,VALID,-0.0339617,VALID,19.5042,VALID,347,VALID,0.526215,
2003-12-06, 01:05:00,VALID,916.663,VALID,0,VALID,99.4713,VALID,-0.0169808,VALID,19.4941,VALID,17,VALID,0.421113,
2003-12-06, 01:06:00,VALID,916.64,VALID,0,VALID,99.4675,VALID,-0.0339617,VALID,19.466,VALID,60,VALID,0.493331,
2003-12-06, 01:07:00,VALID,916.622,VALID,0,VALID,99.5005,VALID,-0.0169808,VALID,19.4431,VALID,62,VALID,0.449033,
2003-12-06, 01:08:00,VALID,916.623,VALID,0,VALID,99.6493,VALID,0,VALID,19.4304,VALID,62,VALID,0.279797,
2003-12-06, 01:09:00,VALID,916.61,VALID,0,VALID,99.779,VALID,0,VALID,19.4468,VALID,62,VALID,0.243576,
2003-12-06, 01:10:00,VALID,916.604,VALID,0,VALID,99.7269,VALID,-0.0509425,VALID,19.4362,VALID,62,VALID,0.344477,
2003-12-06, 01:11:00,VALID,916.585,VALID,0,VALID,99.6455,VALID,-0.0169808,VALID,19.3944,VALID,62,VALID,0.337573,
2003-12-06, 01:12:00,VALID,916.567,VALID,0,VALID,99.7014,VALID,-0.0169808,VALID,19.3755,VALID,62,VALID,0.294398,
2003-12-06, 01:13:00,VALID,916.557,VALID,0,VALID,99.779,VALID,-0.0169808,VALID,19.3589,VALID,100,VALID,0.516335,
2003-12-06, 01:14:00,VALID,916.543,VALID,0,VALID,99.8985,VALID,-0.0169808,VALID,19.3693,VALID,116,VALID,0.971007,
2003-12-06, 01:15:00,VALID,916.52,VALID,0,VALID,100,VALID,0,VALID,19.4493,VALID,106,VALID,0.590278,
2003-12-06, 01:16:00,VALID,916.499,VALID,0,VALID,100,VALID,0,VALID,19.5234,VALID,93,VALID,0.143229,
2003-12-06, 01:17:00,VALID,916.473,VALID,0,VALID,100,VALID,0,VALID,19.5591,VALID,93,VALID,0.00853924,
2003-12-06, 01:18:00,VALID,916.445,VALID,0,VALID,100,VALID,-0.0509425,VALID,19.5082,VALID,93,VALID,0.102257,
2003-12-06, 01:19:00,VALID,916.432,VALID,0,VALID,100,VALID,0,VALID,19.4819,VALID,93,VALID,0.162946,
2003-12-06, 01:20:00,VALID,916.405,VALID,0,VALID,100,VALID,-0.0339617,VALID,19.46,VALID,93,VALID,0.125186,
2003-12-06, 01:21:00,VALID,916.38,VALID,0,VALID,99.9234,VALID,0,VALID,19.3852,VALID,93,VALID,0,
2003-12-06, 01:22:00,VALID,916.358,VALID,0,VALID,99.8426,VALID,-0.0509425,VALID,19.34,VALID,93,VALID,0,
2003-12-06, 01:23:00,VALID,916.334,VALID,0,VALID,99.7688,VALID,-0.0509425,VALID,19.3043,VALID,93,VALID,0.0565476,
2003-12-06, 01:24:00,VALID,916.296,VALID,0,VALID,99.6785,VALID,-0.0169808,VALID,19.2595,VALID,92,VALID,0.0179116,
2003-12-06, 01:25:00,VALID,916.29,VALID,0,VALID,99.6493,VALID,-0.0169808,VALID,19.2143,VALID,69,VALID,0.367188,
2003-12-06, 01:26:00,VALID,916.272,VALID,0,VALID,99.7218,VALID,-0.0679233,VALID,19.2176,VALID,66,VALID,0.36756,
2003-12-06, 01:27:00,VALID,916.263,VALID,0,VALID,99.6289,VALID,-0.0339617,VALID,19.1659,VALID,66,VALID,0.464367,
2003-12-06, 01:28:00,VALID,916.235,VALID,0,VALID,99.7472,VALID,-0.0339617,VALID,19.1631,VALID,65,VALID,0.410764,
2003-12-06, 01:29:00,VALID,916.242,VALID,0,VALID,99.8477,VALID,-0.0509425,VALID,19.1696,VALID,61,VALID,0.53343,
2003-12-06, 01:30:00,VALID,916.226,VALID,0,VALID,99.9626,VALID,0,VALID,19.1887,VALID,74,VALID,0.465545,
2003-12-06, 01:31:00,VALID,916.206,VALID,0,VALID,99.9977,VALID,-0.0679233,VALID,19.2079,VALID,43,VALID,0.394717,
2003-12-06, 01:32:00,VALID,916.2,VALID,0,VALID,100,VALID,-0.0509425,VALID,19.2245,VALID,46,VALID,0.341546,
2003-12-06, 01:33:00,VALID,916.195,VALID,0,VALID,100,VALID,-0.0679233,VALID,19.2079,VALID,46,VALID,0.284091,
2003-12-06, 01:34:00,VALID,916.183,VALID,0,VALID,99.9977,VALID,-0.0339617,VALID,19.2146,VALID,109,VALID,0.515803,
2003-12-06, 01:35:00,VALID,916.179,VALID,0,VALID,100,VALID,-0.0339617,VALID,19.2436,VALID,144,VALID,0.518169,
2003-12-06, 01:36:00,VALID,916.158,VALID,0,VALID,100,VALID,0,VALID,19.2759,VALID,146,VALID,0.512962,
2003-12-06, 01:37:00,VALID,916.15,VALID,0,VALID,100,VALID,-0.0169808,VALID,19.2985,VALID,139,VALID,0.0492369,
2003-12-06, 01:38:00,VALID,916.139,VALID,0,VALID,100,VALID,0,VALID,19.3179,VALID,139,VALID,0.0316134,
2003-12-06, 01:39:00,VALID,916.119,VALID,0,VALID,100,VALID,-0.0169808,VALID,19.3246,VALID,139,VALID,0.0497332,
2003-12-06, 01:40:00,VALID,916.106,VALID,0,VALID,100,VALID,-0.0339617,VALID,19.3179,VALID,161,VALID,0.319382,
2003-12-06, 01:41:00,VALID,916.094,VALID,0,VALID,100,VALID,0,VALID,19.3047,VALID,168,VALID,0.121626,
2003-12-06, 01:42:00,VALID,916.081,VALID,0,VALID,100,VALID,0,VALID,19.2859,VALID,181,VALID,0.356286,
2003-12-06, 01:43:00,VALID,916.074,VALID,0,VALID,100,VALID,0,VALID,19.2729,VALID,183,VALID,0.489062,
2003-12-06, 01:44:00,VALID,916.074,VALID,0,VALID,100,VALID,-0.0169808,VALID,19.2476,VALID,188,VALID,0.321265,
2003-12-06, 01:45:00,VALID,916.055,VALID,0,VALID,100,VALID,-0.0169808,VALID,19.2538,VALID,212,VALID,0.388765,
2003-12-06, 01:46:00,VALID,916.046,VALID,0,VALID,100,VALID,-0.0169808,VALID,19.2734,VALID,229,VALID,0.608103,
2003-12-06, 01:47:00,VALID,916.047,VALID,0,VALID,100,VALID,-0.0169808,VALID,19.2789,VALID,230,VALID,0.260231,
2003-12-06, 01:48:00,VALID,916.051,VALID,0,VALID,100,VALID,-0.0169808,VALID,19.2921,VALID,232,VALID,0.313244,
2003-12-06, 01:49:00,VALID,916.041,VALID,0,VALID,100,VALID,0,VALID,19.305,VALID,232,VALID,0.313045,
2003-12-06, 01:50:00,VALID,916.027,VALID,0,VALID,100,VALID,-0.0509425,VALID,19.3216,VALID,232,VALID,0.25109,
2003-12-06, 01:51:01,VALID,916.026,VALID,0,VALID,100,VALID,0.0169808,VALID,19.3281,VALID,226,VALID,0.49628,
2003-12-06, 01:52:00,VALID,916.017,VALID,0,VALID,100,VALID,-0.0509425,VALID,19.3179,VALID,224,VALID,0.0682292,
2003-12-06, 01:53:00,VALID,916.01,VALID,0,VALID,100,VALID,-0.0169808,VALID,19.3415,VALID,224,VALID,0,
2003-12-06, 01:54:00,VALID,916.003,VALID,0,VALID,100,VALID,0,VALID,19.3147,VALID,224,VALID,0.0758929,
2003-12-06, 01:55:00,VALID,915.978,VALID,0,VALID,100,VALID,-0.0339617,VALID,19.2769,VALID,226,VALID,0.591933,
2003-12-06, 01:56:00,VALID,915.975,VALID,0,VALID,100,VALID,-0.0169808,VALID,19.2342,VALID,351,VALID,0.672061,
2003-12-06, 01:57:00,VALID,915.962,VALID,0,VALID,100,VALID,0,VALID,19.1952,VALID,49,VALID,0.926235,
2003-12-06, 01:58:00,VALID,915.955,VALID,0,VALID,100,VALID,0,VALID,19.1539,VALID,41,VALID,0.8621,
2003-12-06, 01:59:00,VALID,915.935,VALID,0,VALID,100,VALID,0.0169808,VALID,19.1239,VALID,33,VALID,0.621466,
2003-12-06, 02:00:00,VALID,915.927,VALID,0,VALID,100,VALID,-0.0339617,VALID,19.0951,VALID,33,VALID,0.579427,
2003-12-06, 02:01:00,VALID,915.911,VALID,0,VALID,100,VALID,-0.0169808,VALID,19.0561,VALID,33,VALID,0.534339,
2003-12-06, 02:02:01,VALID,915.899,VALID,0,VALID,100,VALID,0,VALID,19.0427,VALID,48,VALID,0.593572,
2003-12-06, 02:03:00,VALID,915.892,VALID,0,VALID,100,VALID,-0.0169808,VALID,19.0949,VALID,59,VALID,0.684048,
2003-12-06, 02:04:01,VALID,915.873,VALID,0,VALID,100,VALID,-0.0169808,VALID,19.153,VALID,67,VALID,0.556463,
2003-12-06, 02:05:00,VALID,915.841,VALID,0,VALID,100,VALID,-0.0339617,VALID,19.1567,VALID,79,VALID,0.43099,
2003-12-06, 02:06:00,VALID,915.801,VALID,0,VALID,100,VALID,-0.0339617,VALID,19.1631,VALID,68,VALID,0.533008,
2003-12-06, 02:07:00,VALID,915.767,VALID,0,VALID,100,VALID,-0.0339617,VALID,19.1599,VALID,63,VALID,0.353711,
2003-12-06, 02:08:00,VALID,915.736,VALID,0,VALID,100,VALID,0.0169808,VALID,19.1502,VALID,66,VALID,0.264824,
2003-12-06, 02:09:01,VALID,915.717,VALID,0,VALID,100,VALID,-0.0169808,VALID,19.1502,VALID,73,VALID,0.267857,
2003-12-06, 02:10:00,VALID,915.691,VALID,0,VALID,100,VALID,0,VALID,19.1631,VALID,101,VALID,0.725632,
2003-12-06, 02:11:01,VALID,915.698,VALID,0,VALID,100,VALID,0,VALID,19.1922,VALID,58,VALID,0.47561,
2003-12-06, 02:12:01,VALID,915.692,VALID,0,VALID,100,VALID,-0.0169808,VALID,19.1597,VALID,55,VALID,0.452172,
2003-12-06, 02:13:01,VALID,915.692,VALID,0,VALID,100,VALID,0,VALID,19.1435,VALID,74,VALID,0.369851,
2003-12-06, 02:14:00,VALID,915.689,VALID,0,VALID,100,VALID,0,VALID,19.1694,VALID,110,VALID,0.741655,
2003-12-06, 02:15:01,VALID,915.687,VALID,0,VALID,100,VALID,-0.0169808,VALID,19.1666,VALID,109,VALID,0.527166,
2003-12-06, 02:16:00,VALID,915.698,VALID,0,VALID,100,VALID,-0.0169808,VALID,19.1701,VALID,77,VALID,0.656441,
2003-12-06, 02:17:00,VALID,915.683,VALID,0,VALID,100,VALID,-0.0169808,VALID,19.1244,VALID,59,VALID,0.483994,
2003-12-06, 02:18:01,VALID,915.682,VALID,0,VALID,100,VALID,0,VALID,19.0953,VALID,56,VALID,0.648785,
2003-12-06, 02:19:00,VALID,915.682,VALID,0,VALID,100,VALID,0,VALID,19.0628,VALID,66,VALID,0.605183,
2003-12-06, 02:20:01,VALID,915.677,VALID,0,VALID,100,VALID,0,VALID,19.0504,VALID,52,VALID,0.48331,
2003-12-06, 02:21:01,VALID,915.67,VALID,0,VALID,100,VALID,-0.0339617,VALID,19.0178,VALID,52,VALID,0.434524,
2003-12-06, 02:22:01,VALID,915.668,VALID,0,VALID,100,VALID,-0.0169808,VALID,18.9994,VALID,52,VALID,0.130022,
2003-12-06, 02:23:00,VALID,915.672,VALID,0,VALID,100,VALID,-0.0169808,VALID,18.9662,VALID,52,VALID,0.0925347,
2003-12-06, 02:24:00,VALID,915.679,VALID,0,VALID,100,VALID,0,VALID,19.0049,VALID,53,VALID,0.0508681,
2003-12-06, 02:25:01,VALID,915.682,VALID,0,VALID,100,VALID,0,VALID,19.0275,VALID,110,VALID,0.231957,
2003-12-06, 02:26:01,VALID,915.69,VALID,0,VALID,100,VALID,0,VALID,19.0859,VALID,161,VALID,0.177144,
2003-12-06, 02:27:00,VALID,915.678,VALID,0,VALID,100,VALID,-0.0169808,VALID,19.1016,VALID,159,VALID,0.0814986,
2003-12-06, 02:28:01,VALID,915.692,VALID,0,VALID,100,VALID,-0.0169808,VALID,19.1276,VALID,159,VALID,0.0459449,
2003-12-06, 02:29:00,VALID,915.677,VALID,0,VALID,100,VALID,0,VALID,19.1373,VALID,160,VALID,0.259115,
2003-12-06, 02:30:00,VALID,915.682,VALID,0,VALID,100,VALID,-0.0339617,VALID,19.1669,VALID,162,VALID,0.335405,
2003-12-06, 02:31:00,VALID,915.677,VALID,0,VALID,100,VALID,-0.0169808,VALID,19.1793,VALID,176,VALID,0.377131,
2003-12-06, 02:32:01,VALID,915.68,VALID,0,VALID,100,VALID,0,VALID,19.192,VALID,166,VALID,0.438086,
2003-12-06, 02:33:01,VALID,915.678,VALID,0,VALID,100,VALID,0,VALID,19.2213,VALID,147,VALID,0.498972,
2003-12-06, 02:34:00,VALID,915.683,VALID,0,VALID,100,VALID,-0.0169808,VALID,19.2342,VALID,181,VALID,0.299538,
2003-12-06, 02:35:00,VALID,915.667,VALID,0,VALID,100,VALID,0,VALID,19.2406,VALID,178,VALID,0.062872,
2003-12-06, 02:36:01,VALID,915.659,VALID,0,VALID,100,VALID,-0.0169808,VALID,19.2469,VALID,159,VALID,0.150298,
2003-12-06, 02:37:00,VALID,915.644,VALID,0,VALID,100,VALID,0,VALID,19.2568,VALID,157,VALID,0.208333,
2003-12-06, 02:38:00,VALID,915.622,VALID,0,VALID,100,VALID,-0.0339617,VALID,19.27,VALID,157,VALID,0.375908,
2003-12-06, 02:39:00,VALID,915.59,VALID,0,VALID,100,VALID,-0.0509425,VALID,19.2921,VALID,142,VALID,0.541146,
2003-12-06, 02:40:01,VALID,915.57,VALID,0,VALID,100,VALID,-0.0169808,VALID,19.3378,VALID,133,VALID,0.81994,
2003-12-06, 02:41:00,VALID,915.523,VALID,0,VALID,100,VALID,-0.0169808,VALID,19.3701,VALID,131,VALID,0.714749,
2003-12-06, 02:42:01,VALID,915.482,VALID,0,VALID,100,VALID,0,VALID,19.4158,VALID,133,VALID,1.67042,
2003-12-06, 02:43:00,VALID,915.459,VALID,0,VALID,100,VALID,-0.0169808,VALID,19.4379,VALID,122,VALID,0.95206,
2003-12-06, 02:44:00,VALID,915.418,VALID,0,VALID,100,VALID,-0.0169808,VALID,19.4123,VALID,81,VALID,0.74673,
2003-12-06, 02:45:01,VALID,915.388,VALID,0,VALID,100,VALID,-0.0339617,VALID,19.3994,VALID,92,VALID,1.08464,
2003-12-06, 02:46:00,VALID,915.352,VALID,0,VALID,100,VALID,0,VALID,19.3986,VALID,84,VALID,0.791481,
2003-12-06, 02:47:00,VALID,915.303,VALID,0,VALID,100,VALID,-0.0169808,VALID,19.4187,VALID,76,VALID,0.952257,
2003-12-06, 02:48:01,VALID,915.26,VALID,0,VALID,100,VALID,-0.0339617,VALID,19.4344,VALID,74,VALID,1.18021,
2003-12-06, 02:49:00,VALID,915.216,VALID,0,VALID,100,VALID,-0.0509425,VALID,19.4347,VALID,92,VALID,1.00205,
2003-12-06, 02:50:01,VALID,915.186,VALID,0,VALID,100,VALID,-0.0169808,VALID,19.4612,VALID,65,VALID,1.18695,
2003-12-06, 02:51:00,VALID,915.162,VALID,0,VALID,100,VALID,0,VALID,19.4602,VALID,73,VALID,1.50703,
2003-12-06, 02:52:01,VALID,915.146,VALID,0,VALID,100,VALID,-0.0169808,VALID,19.4538,VALID,78,VALID,1.07552,
2003-12-06, 02:53:00,VALID,915.127,VALID,0,VALID,100,VALID,-0.0169808,VALID,19.4473,VALID,97,VALID,0.62157,
2003-12-06, 02:54:00,VALID,915.119,VALID,0,VALID,100,VALID,-0.0339617,VALID,19.4443,VALID,98,VALID,0.876272,
2003-12-06, 02:55:00,VALID,915.111,VALID,0,VALID,100,VALID,-0.0509425,VALID,19.4729,VALID,121,VALID,1.34505,
2003-12-06, 02:56:00,VALID,915.098,VALID,0,VALID,100,VALID,0,VALID,19.4891,VALID,114,VALID,1.63624,
2003-12-06, 02:57:01,VALID,915.079,VALID,0,VALID,100,VALID,-0.0339617,VALID,19.5253,VALID,118,VALID,1.60312,
2003-12-06, 02:58:01,VALID,915.06,VALID,0,VALID,100,VALID,-0.0509425,VALID,19.5382,VALID,103,VALID,1.39101,
2003-12-06, 02:59:00,VALID,915.043,VALID,0,VALID,100,VALID,-0.0169808,VALID,19.538,VALID,115,VALID,1.10458,
2003-12-06, 03:00:00,VALID,915.038,VALID,0,VALID,100,VALID,-0.0509425,VALID,19.5181,VALID,110,VALID,0.803779,
2003-12-06, 03:01:01,VALID,915.034,VALID,0,VALID,99.9853,VALID,-0.0339617,VALID,19.5191,VALID,96,VALID,0.808036,
2003-12-06, 03:02:00,VALID,915.033,VALID,0,VALID,99.8998,VALID,-0.0509425,VALID,19.4992,VALID,103,VALID,0.962891,
2003-12-06, 03:03:00,VALID,915.02,VALID,0,VALID,99.8121,VALID,-0.0339617,VALID,19.4928,VALID,101,VALID,1.17969,
2003-12-06, 03:04:01,VALID,915.015,VALID,0,VALID,99.6111,VALID,-0.0849042,VALID,19.4925,VALID,81,VALID,0.823847,
2003-12-06, 03:05:00,VALID,915.015,VALID,0,VALID,99.5552,VALID,-0.0339617,VALID,19.4801,VALID,80,VALID,0.617001,
2003-12-06, 03:06:01,VALID,914.994,VALID,0,VALID,99.5018,VALID,-0.0679233,VALID,19.4769,VALID,108,VALID,1.22569,
2003-12-06, 03:07:00,VALID,915.003,VALID,0,VALID,99.3454,VALID,-0.0339617,VALID,19.4734,VALID,109,VALID,1.08613,
2003-12-06, 03:08:01,VALID,914.997,VALID,0,VALID,99.1178,VALID,-0.0509425,VALID,19.457,VALID,112,VALID,1.10156,
2003-12-06, 03:09:00,VALID,915,VALID,0,VALID,99.0504,VALID,-0.0849042,VALID,19.4473,VALID,112,VALID,1.13095,
2003-12-06, 03:10:00,VALID,914.985,VALID,0,VALID,99.0491,VALID,-0.0509425,VALID,19.4481,VALID,119,VALID,1.37682,
2003-12-06, 03:11:00,VALID,914.982,VALID,0,VALID,99.0478,VALID,-0.0169808,VALID,19.4312,VALID,112,VALID,1.25945,
2003-12-06, 03:12:00,VALID,914.972,VALID,0,VALID,99.1178,VALID,-0.0339617,VALID,19.4279,VALID,96,VALID,0.939024,
2003-12-06, 03:13:00,VALID,914.951,VALID,0,VALID,99.0987,VALID,-0.0849042,VALID,19.4409,VALID,95,VALID,1.21944,
2003-12-06, 03:14:00,VALID,914.937,VALID,0,VALID,98.9372,VALID,-0.0509425,VALID,19.4578,VALID,118,VALID,0.626953,
2003-12-06, 03:15:01,VALID,914.922,VALID,0,VALID,98.983,VALID,-0.0169808,VALID,19.457,VALID,122,VALID,1.10584,
2003-12-06, 03:16:00,VALID,914.903,VALID,0,VALID,98.9893,VALID,-0.0339617,VALID,19.4702,VALID,115,VALID,1.31486,
2003-12-06, 03:17:00,VALID,914.902,VALID,0,VALID,98.8787,VALID,-0.0169808,VALID,19.4506,VALID,103,VALID,1.08612,
2003-12-06, 03:18:01,VALID,914.887,VALID,0,VALID,98.8291,VALID,-0.0169808,VALID,19.4279,VALID,103,VALID,0.878084,
2003-12-06, 03:19:00,VALID,914.875,VALID,0,VALID,98.8049,VALID,0,VALID,19.4086,VALID,100,VALID,1.14081,
2003-12-06, 03:20:00,VALID,914.87,VALID,0,VALID,98.6829,VALID,-0.0169808,VALID,19.383,VALID,120,VALID,1.55755,
2003-12-06, 03:21:00,VALID,914.875,VALID,0,VALID,98.688,VALID,-0.0339617,VALID,19.3638,VALID,119,VALID,1.71577,
2003-12-06, 03:22:00,VALID,914.883,VALID,0,VALID,98.66,VALID,-0.0169808,VALID,19.3763,VALID,118,VALID,1.37383,
2003-12-06, 03:23:00,VALID,914.878,VALID,0,VALID,98.5214,VALID,0,VALID,19.4019,VALID,131,VALID,1.44886,
2003-12-06, 03:24:01,VALID,914.901,VALID,0,VALID,98.398,VALID,-0.0169808,VALID,19.421,VALID,129,VALID,1.48496,
2003-12-06, 03:25:01,VALID,914.897,VALID,0,VALID,98.2671,VALID,0,VALID,19.4538,VALID,128,VALID,1.8247,
2003-12-06, 03:26:00,VALID,914.908,VALID,0,VALID,98.0789,VALID,0,VALID,19.5186,VALID,137,VALID,2.18768,
2003-12-06, 03:27:00,VALID,914.904,VALID,0,VALID,97.8004,VALID,-0.0169808,VALID,19.5504,VALID,137,VALID,1.17126,
2003-12-06, 03:28:01,VALID,914.914,VALID,0,VALID,97.6046,VALID,0,VALID,19.5502,VALID,146,VALID,1.35298,
2003-12-06, 03:29:00,VALID,914.889,VALID,0,VALID,97.5969,VALID,-0.0339617,VALID,19.5315,VALID,140,VALID,1.47191,
2003-12-06, 03:30:01,VALID,914.868,VALID,0,VALID,97.9046,VALID,-0.0169808,VALID,19.502,VALID,137,VALID,1.51524,
2003-12-06, 03:31:00,VALID,914.845,VALID,0,VALID,98.1081,VALID,0,VALID,19.4605,VALID,129,VALID,1.47565,
2003-12-06, 03:32:00,VALID,914.827,VALID,0,VALID,98.2963,VALID,0,VALID,19.4212,VALID,132,VALID,1.258,
2003-12-06, 03:33:00,VALID,914.82,VALID,0,VALID,98.5036,VALID,-0.0339617,VALID,19.3991,VALID,132,VALID,1.4027,
2003-12-06, 03:34:00,VALID,914.819,VALID,0,VALID,98.5875,VALID,-0.0509425,VALID,19.3663,VALID,125,VALID,1.01328,
2003-12-06, 03:35:01,VALID,914.83,VALID,0,VALID,98.501,VALID,0,VALID,19.3375,VALID,120,VALID,1.14844,
2003-12-06, 03:36:00,VALID,914.828,VALID,0,VALID,98.6244,VALID,-0.0509425,VALID,19.3052,VALID,143,VALID,1.3521,
2003-12-06, 03:37:00,VALID,914.834,VALID,0,VALID,98.7541,VALID,-0.0169808,VALID,19.3186,VALID,131,VALID,1.33822,
2003-12-06, 03:38:01,VALID,914.849,VALID,0,VALID,98.8024,VALID,-0.0509425,VALID,19.341,VALID,136,VALID,0.790923,